TimeEDT,TemperatureF,Dew PointF,Humidity,Sea Level PressureIn,VisibilityMPH,Wind Direction,Wind SpeedMPH,Gust SpeedMPH,PrecipitationIn,Events,Conditions,WindDirDegrees,DateUTC
12:53 AM,64.9,63.0,93,30.18,2.0,NE,3.5,-,0.09,Rain,Heavy Rain,50,2013-08-18 04:53:00
12:56 AM,64.4,62.6,94,30.19,1.8,NE,3.5,-,0.03,Rain,Heavy Rain,50,2013-08-18 04:56:00
1:01 AM,64.4,62.6,94,30.19,2.0,NE,4.6,-,0.06,Rain,Heavy Rain,50,2013-08-18 05:01:00
1:11 AM,64.4,62.6,94,30.19,3.0,NNE,4.6,-,0.08,Rain,Rain,30,2013-08-18 05:11:00
1:18 AM,64.4,62.6,94,30.19,6.0,NNE,4.6,-,0.08,Rain,Light Rain,30,2013-08-18 05:18:00
1:50 AM,64.4,62.6,94,30.18,10.0,NE,4.6,-,0.08,,Overcast,40,2013-08-18 05:50:00
1:53 AM,64.9,63.0,93,30.17,10.0,NE,4.6,-,0.08,,Overcast,50,2013-08-18 05:53:00
2:53 AM,64.9,63.0,93,30.16,10.0,NE,6.9,-,N/A,,Overcast,40,2013-08-18 06:53:00
3:53 AM,64.9,63.0,93,30.15,10.0,NE,4.6,-,0.00,,Overcast,50,2013-08-18 07:53:00
4:53 AM,64.9,63.0,93,30.17,3.0,ENE,4.6,-,0.02,Rain,Light Rain,70,2013-08-18 08:53:00
5:06 AM,64.4,62.6,94,30.18,6.0,NE,6.9,-,0.00,Rain,Light Rain,50,2013-08-18 09:06:00
5:53 AM,64.9,63.0,93,30.18,10.0,ENE,3.5,-,0.01,Rain,Light Rain,70,2013-08-18 09:53:00
6:53 AM,64.9,63.0,93,30.19,10.0,Calm,Calm,-,0.00,,Overcast,0,2013-08-18 10:53:00
7:53 AM,66.0,63.0,90,30.20,10.0,NNE,3.5,-,0.00,Rain,Light Rain,30,2013-08-18 11:53:00
8:53 AM,66.0,63.0,90,30.22,10.0,ENE,5.8,-,0.00,Rain,Light Rain,60,2013-08-18 12:53:00
9:53 AM,68.0,64.0,87,30.22,10.0,ENE,4.6,-,0.00,,Overcast,70,2013-08-18 13:53:00
10:17 AM,68.0,64.4,88,30.24,10.0,ENE,5.8,-,N/A,,Overcast,60,2013-08-18 14:17:00
10:53 AM,68.0,64.0,87,30.24,10.0,NE,3.5,-,0.01,,Overcast,50,2013-08-18 14:53:00
11:53 AM,70.0,64.9,84,30.23,10.0,Calm,Calm,-,N/A,,Overcast,0,2013-08-18 15:53:00
12:53 PM,71.1,66.0,84,30.22,10.0,NNE,3.5,-,N/A,,Overcast,20,2013-08-18 16:53:00
1:35 PM,71.6,66.2,83,30.23,10.0,Calm,Calm,-,N/A,,Overcast,0,2013-08-18 17:35:00
1:53 PM,73.0,66.0,79,30.21,10.0,Calm,Calm,-,N/A,,Overcast,0,2013-08-18 17:53:00
2:27 PM,77.0,66.2,69,30.21,10.0,Calm,Calm,-,N/A,,Mostly Cloudy,0,2013-08-18 18:27:00
2:53 PM,75.0,66.0,73,30.18,10.0,Calm,Calm,-,N/A,,Overcast,0,2013-08-18 18:53:00
3:53 PM,75.9,66.0,71,30.17,10.0,West,3.5,-,N/A,,Overcast,280,2013-08-18 19:53:00
4:37 PM,77.0,66.2,69,30.18,10.0,NW,3.5,-,N/A,,Scattered Clouds,320,2013-08-18 20:37:00
4:53 PM,77.0,66.0,69,30.16,10.0,NNW,3.5,-,N/A,,Mostly Cloudy,330,2013-08-18 20:53:00
5:11 PM,78.8,66.2,65,30.18,10.0,Calm,Calm,-,N/A,,Overcast,0,2013-08-18 21:11:00
5:53 PM,75.9,66.9,74,30.16,10.0,Calm,Calm,-,N/A,,Overcast,0,2013-08-18 21:53:00
6:53 PM,73.9,66.9,79,30.16,10.0,Calm,Calm,-,N/A,,Overcast,0,2013-08-18 22:53:00
7:53 PM,73.9,66.9,79,30.17,10.0,Calm,Calm,-,N/A,,Partly Cloudy,0,2013-08-18 23:53:00
8:53 PM,73.0,68.0,84,30.18,10.0,Calm,Calm,-,0.00,Rain,Light Rain,0,2013-08-19 00:53:00
9:53 PM,72.0,69.1,91,30.19,10.0,NNW,3.5,-,0.01,Rain,Light Rain,330,2013-08-19 01:53:00
10:53 PM,72.0,69.1,91,30.20,9.0,Calm,Calm,-,0.02,Rain,Light Rain,0,2013-08-19 02:53:00
11:07 PM,71.6,69.8,94,30.22,10.0,East,3.5,-,0.00,Rain,Light Rain,100,2013-08-19 03:07:00
11:37 PM,71.6,69.8,94,30.22,10.0,Calm,Calm,-,0.00,Rain,Light Rain,0,2013-08-19 03:37:00
11:53 PM,72.0,69.1,91,30.21,10.0,Calm,Calm,-,0.00,,Overcast,0,2013-08-19 03:53:00